星链-30811 (STARLINK-30811 )

导读

STARLINK-30811是美国太空探索技术公司(SpaceX)星链(Starlink)星座中的卫星,于当地时间2023年10月29日由猎鹰9号火箭,在范登堡太空部队基地执行Starlink Group 7-6任务中发射入轨。 星链星座旨在为全球提供高速低延迟宽带互联网服务,尤其覆盖基础设施缺乏的偏远地区。该卫星属于近地轨道卫星,星链卫星采用标准化设计,配备氪离子推进与自主碰撞规避系统,支撑全球卫星互联网组网,单星设计寿命约5年。

Basic Information
目录编号:
58167
目录名称:
STARLINK-30811
国际标识:
2023-166T
轨道中心:
EARTH
卫星名称:
星链-30811
卫星全名:
星链-30811 (STARLINK-30811 )
卫星状态:
在轨 (已飞行963 天)
发射日期:
2023-10-29 UTC
国别 :
美国 (US)
星等 :
--
Orbit Information
数据来源 国际轨道数据 AOE轨道数据
星历时间 2026-06-17T10:58:33+0800
1天前
查看轨道信息
2026-06-14T04:00:00+0800
4天前
查看轨道信息
半长轴 6848.908km 6848.855km
偏心率 0.0001333 0.0001009
轨道倾角 53.160° 53.156°
近地点辐角 93.127° 77.475°
升交点赤经 117.011° 132.333°
平近点角 266.988° 127.479°
近地点 469.858km 470.026km
远地点 471.684km 471.41km
周期 94.014分钟 94.013分钟
每日圈数 15.316897 15.317074
Detailed Information
固有亮度:
5
最大亮度:
0.3
卫星平台:
Starlink v2.0 mini
覆盖范围:
全球
运营商:
太空探索技术公司
运营商所在国:
美国
制造商(研发单位):
太空探索技术公司
制造商所在国:
美国
使用方式:
暂无
Satellite Introduction
星链(Starlink)计划是由太空探索技术公司(SpaceX)提出的一个巨型低轨卫星互联网星座项目,计划在2019年至2024年间在太空搭建由约1.2万颗卫星组成的“星链”网络,其中1584颗将部署在地球上空550千米处的近地轨道,并从2020年开始工作。该卫星仍在工作。
2D Orbit Map
3D Orbit Map
Orbit Altitude Analysis Chart
Orbit Inclination Analysis Chart
Orbit Comprehensive Analysis Chart
View Comprehensive Chart